{"data":{"norad_id":44035,"epoch":"2026-09-20T03:27:49.296384Z","epoch_age_seconds":52610,"freshness":"FRESH","line1":"1 44035U 19007B   26263.14432056  .00000121  00000+0  00000+0 0  9999","line2":"2 44035   0.0168 138.7010 0003934  88.4663 231.7067  1.00273287 27923","mean_motion":1.00273287,"eccentricity":0.0003934,"inclination_deg":0.0168,"raan_deg":138.701,"arg_perigee_deg":88.4663,"mean_anomaly_deg":231.7067,"bstar":0,"rev_number":2792,"period_min":1436.0753926417,"perigee_km":35769.586461414,"apogee_km":35802.761341231,"semimajor_km":42164.310901322,"source":"CELESTRAK","updated_at":"2026-09-20T09:00:35.265478Z"}}